FW2889 Weather Reports


Display with metric or nautical units.
time (UTC)temp
F
wind
direction
speed
MPH
gust
MPH
rain 1hr
in
rain 24hr
in
rain mn
in
humidity
%
barometer
mb
20260508140121 83 0 9.0 17.0 0.00 0.00 0.00 28 993.1
20260508133042 85 0 5.0 15.0 0.00 0.00 0.00 26 992.8
20260508123041 86 0 4.0 16.0 0.00 0.00 0.00 26 993.1
20260508120101 85 0 3.0 10.0 0.00 0.00 0.00 29 993.2
20260508113101 83 0 3.0 9.0 0.00 0.00 0.00 29 993.5
20260508110041 84 0 3.0 10.0 0.00 0.00 0.00 27 993.6
20260508103144 85 0 3.0 10.0 0.00 0.00 0.00 24 993.7
20260508100041 85 0 3.0 9.0 0.00 0.00 0.00 28 993.8
20260508093040 85 0 3.0 9.0 0.00 0.00 0.00 30 993.9
20260508090121 84 0 3.0 8.0 0.00 0.00 0.00 27 993.9
20260508083040 83 0 3.0 7.0 0.00 0.00 0.00 30 994.1
20260508080040 81 0 3.0 9.0 0.00 0.00 0.00 35 994.0
20260508073102 81 0 2.0 9.0 0.00 0.00 0.00 35 994.1
20260508070041 80 68 2.0 11.0 0.00 0.00 0.00 40 993.9
20260508063041 78 90 1.0 5.0 0.00 0.00 0.00 35 993.9
20260508060042 76 0 2.0 6.0 0.00 0.00 0.00 41 993.8
20260508053040 74 90 1.0 5.0 0.00 0.00 0.00 44 993.9
20260508050040 71 0 2.0 5.0 0.00 0.00 0.00 50 993.7
20260508043100 68 0 2.0 5.0 0.00 0.00 0.00 56 993.5
20260508040041 66 0 3.0 6.0 0.00 0.00 0.00 54 993.4
20260508033042 64 0 4.0 10.0 0.00 0.00 0.00 58 993.4
20260508030042 63 0 2.0 7.0 0.00 0.00 0.00 61 993.2
20260508023042 61 0 2.0 6.0 0.00 0.00 0.00 61 992.9
20260508020142 61 45 2.0 6.0 0.00 0.00 0.00 63 992.8
20260508013042 64 0 2.0 4.0 0.00 0.00 0.00 59 992.7
20260508010042 65 0 2.0 5.0 0.00 0.00 0.00 57 992.8
20260508003042 64 113 3.0 7.0 0.00 0.00 0.00 61 992.8
20260508000042 64 113 2.0 7.0 0.00 0.00 0.00 62 992.9
20260507233041 62 90 4.0 9.0 0.00 0.00 0.00 66 992.9
20260507230045 63 113 4.0 9.0 0.00 0.00 0.00 65 993.3
20260507223041 63 113 3.0 9.0 0.00 0.00 0.00 64 993.2
20260507220041 62 113 2.0 4.0 0.00 0.00 0.00 64 993.2
20260507213041 63 113 2.0 6.0 0.00 0.00 0.00 63 992.9
20260507210041 62 113 3.0 7.0 0.00 0.00 0.00 64 993.1
20260507203042 63 113 3.0 8.0 0.00 0.00 0.00 63 993.0
20260507200142 64 113 4.0 10.0 0.00 0.00 0.00 60 992.9
20260507193042 65 113 2.0 6.0 0.00 0.00 0.00 59 992.8
20260507190202 66 0 3.0 9.0 0.00 0.00 0.00 56 992.8
20260507183042 67 0 3.0 7.0 0.00 0.00 0.00 55 992.8
20260507180042 67 113 3.0 8.0 0.00 0.00 0.00 54 992.9
20260507173041 69 90 2.0 4.0 0.00 0.00 0.00 51 992.6
20260507170042 70 113 2.0 6.0 0.00 0.00 0.00 48 992.4
20260507163042 74 113 1.0 6.0 0.00 0.00 0.00 42 992.3
20260507160042 76 0.0 2.0 0.00 0.00 0.00 34 991.9
20260507153041 78 0 5.0 17.0 0.00 0.00 0.00 32 991.9
20260507150041 76 0 2.0 12.0 0.00 0.00 0.00 36 992.0
20260507143042 79 0 5.0 29.0 0.00 0.00 0.00 32 991.7